Theta_e
294 295 294 295 293 293 292 291 290 289 291 293 290 291 291 284 279 281 290 291 288 288 290 292 293 293 293 293 294 295 296 296 296 295 294 294 294 294 294 295 296 296 296 296 297 297 298 298 298 299 299 300 300 300 301 301 302 304 305 307 309 311 317 321 321 321 321 321 321 321 321 322 323 323 322 322 323 322 322 321 323 322 318 314 311 309 307
293 294 293 293 291 291 291 291 291 290 290 290 291 291 292 291 289 290 289 288 286 289 289 291 293 295 294 294 295 295 294 294 295 294 293 293 293 292 293 294 295 296 296 296 296 297 297 297 297 298 298 298 299 298 299 300 301 302 304 304 306 308 308 313 320 321 321 321 320 321 321 322 323 323 323 322 322 321 321 322 320 317 314 311 309 307 305
289 291 292 292 291 290 288 290 290 290 290 289 290 290 291 292 289 289 288 286 285 290 292 292 294 294 295 293 292 292 292 292 293 292 292 292 292 292 293 294 294 295 296 295 296 295 296 296 297 297 298 298 298 298 298 299 300 301 303 303 303 305 305 306 312 320 321 321 321 320 322 322 323 323 322 321 320 320 320 318 316 314 311 308 306 305 304
284 289 289 289 290 289 287 286 288 288 288 285 287 286 289 289 287 287 287 285 284 289 292 292 292 292 291 290 290 290 291 292 292 292 292 291 291 292 292 293 294 294 295 295 295 295 295 296 296 296 297 297 297 297 298 298 299 301 301 301 302 303 304 305 307 315 320 320 319 320 322 322 322 322 321 320 319 318 317 315 313 310 308 305 304 302 301
282 288 289 289 288 286 284 284 287 288 288 289 289 289 290 290 292 286 285 284 288 290 292 289 289 289 289 290 291 291 291 291 291 291 291 292 292 292 293 293 293 294 294 295 295 295 295 296 296 296 297 297 297 297 297 298 299 299 300 300 301 301 302 303 305 307 318 319 319 318 319 321 320 319 319 318 317 315 314 312 309 306 304 302 301 300 300
283 288 288 286 281 275 278 289 293 293 288 287 285 285 287 290 290 288 290 289 290 290 289 288 287 287 288 289 291 293 292 291 290 290 291 291 291 292 293 293 294 294 294 295 295 296 296 297 297 297 297 297 298 298 298 298 298 299 299 300 300 301 302 302 303 304 311 316 316 316 316 317 317 318 316 315 314 313 311 308 305 302 301 300 300 299 298
282 284 283 280 275 276 289 293 292 292 290 289 287 287 289 290 291 290 289 289 289 289 289 289 289 290 290 291 291 291 292 293 292 291 290 291 291 291 292 292 293 294 294 294 294 295 296 297 297 297 297 297 298 298 297 297 297 298 298 299 300 301 302 302 303 303 304 311 311 312 312 312 312 311 311 310 310 309 306 304 302 301 300 299 299 299 298
280 279 278 276 277 286 291 292 293 293 292 290 289 286 288 290 290 291 288 289 289 289 289 290 290 290 290 291 291 292 292 292 291 291 291 291 291 291 291 292 292 293 294 294 294 295 297 296 297 298 297 298 298 298 298 297 297 297 298 298 299 300 301 302 303 303 303 304 307 308 309 309 308 307 307 306 305 305 304 303 302 301 300 300 298 298 298
278 279 281 280 286 285 287 287 289 291 287 288 287 281 284 289 291 291 289 289 289 289 289 290 290 291 290 287 288 292 292 292 292 292 292 293 293 292 292 293 293 294 294 294 295 295 295 296 296 297 298 298 297 298 298 297 297 297 297 297 298 299 300 301 302 303 303 303 303 304 305 306 305 305 304 304 304 305 303 302 302 301 301 300 299 298 297
281 282 279 280 278 276 281 288 292 294 294 294 292 287 283 289 291 293 291 289 288 289 290 290 290 292 286 283 284 290 292 292 292 293 293 294 295 295 295 294 294 294 295 295 295 295 294 295 295 296 297 298 297 297 297 297 297 296 297 297 298 299 299 301 302 302 303 303 302 303 303 303 303 303 303 303 303 303 303 302 301 301 301 300 299 298 297
281 281 278 278 276 278 285 287 290 293 294 295 295 286 280 287 290 291 292 290 290 290 290 290 292 287 281 281 284 290 291 292 293 292 292 293 294 294 294 294 294 294 295 296 296 296 295 293 294 296 297 297 297 296 296 297 297 296 296 298 298 299 299 301 302 302 302 303 303 302 302 302 303 302 302 302 302 303 302 302 301 301 300 298 298 298 297
277 278 278 275 279 278 284 288 291 293 295 295 290 280 279 286 289 290 291 290 289 289 289 290 288 285 280 282 285 291 292 293 293 293 293 293 294 294 295 295 295 296 296 295 295 295 294 294 295 296 296 296 296 295 296 296 296 296 297 298 299 300 300 301 301 302 302 302 302 302 302 303 303 303 303 303 302 302 302 301 300 299 298 297 296 296 297
278 280 278 280 281 286 289 290 292 294 295 293 281 278 281 288 288 289 289 289 289 289 289 288 284 285 287 288 290 292 294 294 294 295 296 295 296 295 295 295 296 295 295 295 294 295 295 295 296 296 297 296 295 295 295 294 294 296 298 299 300 300 300 300 300 301 301 301 301 302 302 302 303 303 303 303 302 302 301 301 299 298 297 297 297 297 297
275 275 278 279 282 286 290 292 293 294 290 281 279 284 290 289 288 289 289 288 289 288 287 287 286 288 290 292 292 292 293 293 293 295 295 296 296 297 297 297 297 296 295 295 295 295 296 296 296 296 296 296 295 295 294 293 293 296 298 298 299 299 299 299 299 299 300 300 301 301 301 301 301 301 303 304 303 302 301 300 299 298 297 297 296 296 296
275 274 276 277 275 284 291 290 291 291 284 283 287 289 289 290 289 289 289 289 289 289 288 289 289 289 290 291 291 292 293 293 293 294 294 294 295 295 295 296 297 297 295 295 295 295 296 296 296 296 295 295 295 295 294 294 295 296 296 297 297 298 298 298 298 299 299 299 299 300 300 300 300 299 300 302 304 303 302 301 299 298 297 297 297 296 296
277 276 276 276 283 286 291 290 284 286 288 290 291 289 287 290 290 289 289 290 290 290 289 289 289 290 290 291 292 292 293 293 294 294 294 295 295 296 297 297 297 297 296 296 295 295 296 296 296 296 295 294 294 294 294 296 296 296 296 296 297 296 297 297 297 297 298 299 298 298 298 298 299 298 299 299 300 302 303 302 300 298 298 298 297 296 296
278 278 283 287 289 290 291 291 290 291 292 292 291 291 289 289 289 290 289 289 290 291 290 290 290 290 291 291 292 291 292 293 293 293 294 294 295 295 295 296 297 297 296 295 296 295 296 295 296 296 295 294 294 293 295 296 296 296 296 296 296 296 296 296 295 295 296 296 297 297 296 296 296 297 297 298 298 299 300 301 301 300 298 298 297 296 296
290 290 290 290 289 289 290 292 292 291 291 292 291 290 288 289 289 289 289 290 291 291 292 291 291 291 292 292 292 293 293 293 293 294 295 295 295 295 296 296 296 296 297 296 296 294 294 295 295 296 296 295 294 294 294 295 295 296 295 295 295 295 295 295 295 295 294 294 294 295 295 295 295 295 295 296 296 297 298 298 298 298 298 298 297 296 295
285 279 289 288 288 290 290 291 292 292 291 290 291 291 291 291 292 292 292 292 293 293 293 292 291 291 291 291 291 292 292 293 293 294 293 294 294 294 294 295 295 295 295 294 294 294 293 293 294 295 295 296 296 296 296 295 295 294 294 294 294 294 294 295 295 294 293 293 292 292 292 294 294 293 293 293 294 294 295 296 296 297 297 297 296 295 294
283 282 287 289 290 290 291 291 289 289 290 291 293 293 294 293 294 294 293 293 292 292 291 291 290 290 291 291 290 291 291 292 293 294 294 294 294 295 295 296 295 294 293 293 292 292 292 292 293 294 295 295 296 296 296 296 295 293 292 291 292 293 293 293 294 295 293 290 291 291 291 291 291 292 292 291 290 289 290 292 295 295 296 295 294 294 293
286 289 289 289 289 289 290 290 291 291 292 292 293 293 293 294 293 293 293 293 292 291 290 291 291 290 290 291 291 291 291 291 291 291 292 292 293 293 292 293 292 292 291 292 292 292 291 291 291 292 293 294 296 295 295 295 294 292 291 290 291 291 292 292 292 293 294 293 292 291 291 290 290 289 289 290 290 290 290 289 290 294 294 294 294 294 294
282 283 285 288 282 282 286 289 290 291 292 292 292 292 292 292 292 292 291 291 291 291 291 289 289 288 288 289 289 289 288 288 288 288 289 290 290 290 291 291 288 288 289 289 290 291 291 289 289 291 292 293 294 295 295 294 293 292 291 290 290 290 291 291 291 292 292 292 292 291 291 291 290 290 287 289 289 290 289 290 289 289 289 291 293 292 291
282 287 289 288 288 288 288 289 290 291 291 291 290 290 290 289 290 290 289 289 288 289 289 288 286 285 286 287 286 286 287 288 288 288 288 288 289 290 289 287 287 288 288 290 289 289 290 291 290 290 290 292 292 293 293 293 293 292 291 290 289 289 290 290 289 290 291 291 292 291 291 290 291 290 290 290 288 288 289 289 289 289 289 289 289 290 292
289 291 290 290 289 287 289 291 292 292 292 291 290 290 290 290 290 289 289 289 289 288 288 289 289 288 287 286 286 287 288 288 288 288 288 288 288 288 287 287 286 287 288 288 288 289 290 290 290 289 290 292 293 294 293 293 291 291 291 290 289 288 289 289 290 289 289 290 291 291 291 291 289 289 289 289 290 289 289 289 289 289 289 289 289 289 289
288 292 292 291 291 291 292 292 292 293 293 292 291 291 290 290 290 290 290 289 289 289 289 289 290 290 289 288 287 288 287 286 287 287 288 288 287 287 286 286 286 286 286 287 287 289 290 290 291 291 290 290 291 293 293 293 292 291 292 291 289 288 288 289 289 289 288 289 290 290 290 289 290 289 288 287 287 288 290 289 290 289 289 289 289 289 289
292 292 292 293 292 292 292 291 291 291 292 292 292 291 294 295 293 292 291 290 290 290 290 290 290 291 291 290 289 288 286 287 288 288 287 286 286 286 286 286 287 287 286 286 287 288 289 289 289 290 290 290 290 292 293 292 291 291 291 290 289 287 287 288 289 289 289 289 289 290 291 289 289 288 287 288 287 287 287 288 289 290 290 289 289 290 289
292 292 292 290 289 289 291 290 289 292 292 292 292 292 292 293 295 294 292 291 291 291 291 290 290 290 289 289 288 286 286 286 286 287 285 285 285 286 287 287 286 286 286 286 286 287 287 288 289 289 289 290 289 290 293 292 291 290 290 289 289 288 287 288 288 288 286 288 288 290 290 290 289 288 288 286 286 286 286 287 287 287 287 289 289 289 288
291 291 291 287 286 287 289 290 291 292 292 292 291 291 292 292 291 289 288 287 286 286 287 287 287 286 286 286 287 286 286 286 286 284 285 285 286 286 286 286 286 286 286 285 285 286 286 287 288 287 289 290 291 291 292 291 290 290 290 290 290 288 288 288 289 287 286 286 287 289 289 289 290 289 288 288 287 287 287 287 287 287 287 287 287 288 289
289 289 289 289 288 288 288 288 289 289 289 290 292 291 290 289 288 288 287 287 287 287 287 287 287 287 287 286 287 286 285 285 284 284 285 285 286 286 286 285 285 284 285 285 286 286 286 287 287 288 288 289 290 291 290 289 289 290 289 289 289 288 286 287 288 288 288 288 287 286 287 286 287 288 288 288 288 288 287 287 286 286 286 286 287 288 288
289 289 289 288 288 287 287 287 287 287 288 290 291 290 291 291 289 288 288 287 287 288 287 287 286 288 287 287 286 286 286 285 286 285 285 285 285 285 285 284 283 284 285 286 286 286 286 286 286 287 288 288 290 290 290 289 289 290 290 290 289 287 286 286 287 288 288 288 286 284 285 285 287 287 287 287 287 286 286 285 285 285 287 286 286 285 285
288 289 289 288 288 287 288 287 288 288 289 289 289 289 289 289 289 288 288 288 287 287 288 287 287 286 286 286 286 286 286 286 285 285 285 285 283 282 284 284 285 284 284 284 285 285 284 285 286 288 288 289 289 290 289 289 289 289 290 289 287 286 286 285 285 287 286 286 286 285 285 284 284 285 285 285 285 286 286 285 284 285 285 285 284 284 284
288 288 289 288 288 287 288 289 289 289 289 290 290 288 288 289 288 287 286 286 287 287 286 287 286 287 287 287 287 287 287 285 285 284 283 282 281 280 280 283 284 284 284 284 284 284 285 287 287 288 287 288 288 288 289 288 288 288 289 288 287 288 287 287 288 286 286 286 285 287 285 285 285 285 285 285 285 284 284 284 283 283 284 285 284 283 284
286 285 286 287 287 286 287 289 289 287 286 288 288 288 288 288 288 288 287 287 287 286 287 287 286 286 286 286 285 285 283 281 279 278 279 279 279 278 279 281 283 284 284 285 284 285 287 287 287 286 286 287 288 288 288 288 287 288 288 288 289 290 289 289 288 289 289 285 284 285 284 284 284 285 284 284 285 284 284 283 283 282 283 284 284 284 285
288 286 286 287 286 286 286 287 287 287 287 286 287 287 287 287 287 286 287 286 287 287 287 287 287 286 285 283 282 281 279 281 282 280 278 277 277 277 279 281 283 284 284 284 285 286 286 287 286 286 287 288 289 289 289 288 289 289 288 288 289 290 292 291 290 289 289 286 284 285 285 284 283 283 283 283 283 283 284 284 283 283 283 283 284 284 286
289 287 287 287 287 288 289 289 288 287 287 286 285 286 287 287 287 288 287 288 287 287 286 286 284 282 279 278 279 280 281 282 280 279 279 276 274 275 278 282 283 284 284 285 285 286 286 286 285 287 287 289 289 288 289 289 288 287 287 287 287 289 291 291 292 290 289 287 285 285 284 284 283 284 284 283 283 282 282 282 283 283 284 284 286 286 286
288 288 288 288 288 288 288 288 288 287 287 286 287 288 288 287 287 287 287 288 288 288 287 285 282 280 279 279 279 278 279 278 277 276 275 275 272 273 279 281 282 283 283 285 285 286 285 286 285 287 288 288 288 287 287 288 288 288 288 287 287 287 289 290 291 290 288 288 287 285 284 285 284 284 284 283 283 283 283 282 283 283 284 285 284 285 284
290 289 288 288 288 288 288 288 288 287 287 287 288 288 287 287 287 288 287 288 288 287 287 286 284 282 281 281 278 277 278 277 274 274 274 272 274 278 280 280 281 282 282 283 283 285 286 285 286 288 287 288 288 287 285 286 286 287 288 288 286 286 287 288 289 288 290 287 286 284 284 284 284 283 284 284 284 283 283 283 283 283 282 285 286 286 286
288 289 289 288 288 287 287 288 288 289 289 288 288 287 288 287 287 287 287 288 289 288 287 286 286 285 282 280 279 279 278 276 274 274 274 276 277 281 281 281 281 282 281 282 283 285 286 285 286 288 288 288 289 287 285 286 287 286 286 286 287 287 286 287 288 288 289 288 287 284 283 283 284 284 283 283 283 283 284 284 284 283 283 285 285 285 285
287 287 288 287 287 287 287 288 288 287 289 288 288 287 288 288 288 289 290 289 289 288 288 287 286 285 284 284 284 283 280 277 274 275 276 278 280 281 281 282 283 284 284 285 285 286 286 283 285 286 288 288 289 289 286 287 287 286 286 287 287 286 287 287 287 288 289 288 285 283 284 283 285 284 283 283 283 283 284 284 283 284 283 284 285 286 286
286 286 287 287 287 288 287 288 288 288 288 290 289 289 289 288 288 288 288 289 290 289 288 287 286 286 285 285 285 285 285 284 280 278 278 279 281 282 282 284 286 286 286 285 286 286 285 285 286 286 287 287 288 287 286 286 286 286 286 287 287 286 286 286 287 288 287 285 284 284 283 284 284 284 284 283 283 283 282 282 283 283 283 285 286 287 287
287 287 287 287 287 286 287 288 288 288 288 287 287 288 287 288 287 288 288 290 290 289 288 288 289 288 288 287 286 286 286 285 283 282 281 281 282 282 283 281 285 285 286 285 284 284 285 284 285 285 285 285 286 285 284 285 285 287 287 285 286 285 286 286 286 286 287 287 285 284 284 285 284 284 284 284 283 283 283 283 284 284 284 284 285 287 287
287 287 287 287 287 287 288 287 287 289 289 290 289 290 289 289 290 289 289 289 289 289 289 289 289 289 287 287 287 287 287 286 284 284 283 284 284 283 281 282 284 286 285 285 284 283 282 284 284 286 285 285 284 285 286 285 284 284 285 285 284 285 285 285 286 287 288 289 287 286 285 284 284 285 285 284 283 282 283 282 282 283 284 284 286 286 285
287 287 287 287 287 287 287 287 288 288 288 289 290 290 289 289 289 288 289 289 290 288 288 288 289 288 287 287 288 288 288 287 285 285 284 285 285 284 285 284 284 285 287 286 283 282 283 282 284 285 286 285 285 286 287 285 284 283 284 284 284 284 285 285 287 286 286 287 287 288 287 285 284 283 284 283 283 283 282 283 283 284 285 286 286 286 286
288 288 288 288 287 287 286 288 287 287 287 288 288 288 289 289 288 288 289 289 289 289 289 289 288 288 288 288 287 286 285 286 285 285 285 285 287 288 289 287 287 287 287 284 283 283 283 283 283 285 287 286 286 286 285 283 283 283 284 284 283 283 282 283 283 284 286 285 287 287 288 287 286 284 283 283 282 282 282 281 283 285 285 285 285 286 287
288 288 288 288 287 284 286 288 288 288 288 288 288 289 289 288 289 289 289 288 289 289 288 289 288 288 288 288 288 289 286 286 287 287 284 284 284 285 285 288 287 286 285 284 283 283 283 283 284 285 286 286 286 286 283 282 282 282 283 283 283 282 283 283 283 284 284 285 285 285 284 283 285 284 284 284 284 283 283 282 284 284 284 286 287 287 288
288 289 288 286 287 287 286 287 288 287 287 287 288 288 287 288 288 288 288 289 290 290 289 289 289 289 289 289 288 289 289 289 287 286 284 285 285 286 285 286 285 285 285 284 283 283 283 285 285 286 285 285 285 283 282 281 281 281 282 282 283 283 283 282 282 284 283 285 284 283 283 283 283 284 284 283 284 284 283 283 283 283 285 286 286 287 287
288 288 287 287 288 288 289 288 288 287 288 287 287 286 287 289 289 289 289 290 290 290 290 289 289 290 289 289 289 287 287 288 288 287 287 286 285 286 286 286 286 285 284 283 283 284 282 283 284 284 285 285 284 281 280 280 280 281 281 282 282 282 282 282 283 283 283 282 283 284 285 285 285 285 285 285 284 285 284 283 283 284 284 285 285 286 286
288 288 288 288 290 291 290 288 287 287 287 288 287 287 287 288 288 288 288 289 289 290 289 289 289 290 289 290 290 288 286 286 287 286 285 286 286 286 285 285 284 285 284 285 284 284 284 284 284 284 284 283 281 280 280 281 281 282 282 282 282 283 282 282 283 284 283 283 283 283 284 283 283 284 285 286 286 285 284 284 284 283 282 284 285 286 287
289 288 288 288 288 287 287 287 287 287 288 287 287 288 288 287 287 288 288 289 289 289 289 289 289 289 289 288 288 287 288 285 285 286 285 285 286 285 285 286 286 285 284 282 283 283 284 284 284 283 283 282 280 280 281 281 282 283 282 280 281 281 281 281 282 282 282 282 282 282 283 284 282 283 284 284 284 284 284 284 284 284 284 284 283 284 285
289 288 287 286 287 287 287 286 286 287 288 288 287 287 286 286 285 286 286 286 286 285 285 285 286 286 286 286 286 287 287 287 286 286 287 286 285 285 285 285 284 284 284 282 283 283 283 284 284 283 282 280 280 281 282 282 282 282 282 281 281 280 281 282 285 285 285 283 282 282 282 282 283 283 283 283 284 284 285 286 284 285 285 284 284 284 284
287 288 287 287 287 288 289 289 289 288 288 287 288 286 286 287 286 286 285 287 287 286 286 285 285 286 286 287 287 288 287 286 285 286 284 285 284 285 285 284 284 284 283 284 283 283 281 281 281 282 282 281 281 282 282 282 282 282 282 280 281 281 283 284 283 284 284 284 282 283 283 282 282 282 282 282 283 284 284 285 285 284 284 285 285 286 285
289 289 288 288 287 288 289 289 289 288 288 286 285 285 285 286 286 285 285 286 286 284 283 284 285 286 285 285 286 287 286 285 284 283 284 284 284 284 284 286 285 286 285 285 284 285 283 282 282 283 283 282 282 282 283 283 282 282 281 281 282 281 282 284 283 283 283 283 283 283 283 283 282 282 283 282 282 283 283 284 285 285 284 284 285 285 285
Wind_Speed
8 10 9 10 12 10 9 12 11 9 8 13 10 5 3 2 1 6 9 10 9 7 8 8 8 9 9 9 9 9 9 9 9 9 11 12 12 12 13 12 13 13 13 12 13 13 12 13 14 14 12 12 12 12 13 11 12 12 12 11 8 7 8 3 3 5 6 3 3 3 4 5 8 8 10 11 10 5 7 8 7 7 8 8 8 7 6
12 10 12 12 15 11 14 12 11 9 12 11 10 10 10 10 10 11 14 14 11 7 7 8 8 7 9 8 8 9 11 10 9 10 11 11 10 11 10 10 11 10 12 12 12 12 13 13 13 13 12 12 12 13 13 13 11 12 11 11 10 8 6 7 7 4 5 5 3 3 6 6 8 8 10 13 14 12 10 7 7 9 9 8 9 9 9
8 9 11 13 14 15 12 10 8 7 6 10 10 8 8 9 11 10 13 13 10 5 6 8 7 7 7 10 11 12 11 10 10 10 9 9 9 10 10 10 10 9 10 10 11 12 12 12 12 11 10 10 11 11 11 12 12 12 10 10 9 9 10 8 7 4 4 6 5 6 7 7 7 9 8 8 8 8 6 7 11 10 10 10 9 8 9
3 4 13 12 15 16 14 10 9 7 8 8 7 6 5 3 7 4 8 7 5 5 5 7 8 10 12 12 11 10 8 8 9 9 9 9 10 10 9 9 9 9 10 10 11 10 11 11 11 11 10 10 9 11 11 11 11 11 10 10 10 10 9 10 8 6 2 5 4 6 7 9 10 11 9 13 12 5 6 11 11 10 11 10 9 8 8
4 5 8 10 6 5 6 5 4 8 9 7 6 10 11 7 1 4 3 4 4 5 5 10 9 9 11 11 10 7 8 8 8 9 8 8 8 9 9 9 9 9 8 8 8 9 9 9 10 10 10 9 11 10 11 10 9 10 11 10 10 9 10 11 10 9 4 7 8 6 7 7 7 4 7 12 11 8 10 11 11 12 10 11 9 7 8
7 7 2 1 4 3 1 3 5 3 5 8 11 6 8 10 7 5 6 8 7 6 7 11 10 11 11 9 8 7 5 5 7 8 8 8 8 8 8 8 8 7 6 6 6 6 6 7 8 7 7 8 8 8 8 8 9 10 10 11 10 10 9 11 12 10 9 6 7 6 5 3 6 7 7 11 12 10 10 11 12 11 10 11 9 8 8
6 3 1 5 2 1 1 3 7 10 10 13 14 12 11 9 8 10 10 9 9 9 10 10 10 9 8 9 9 10 9 7 5 6 8 9 8 8 7 8 8 7 7 7 6 6 7 7 7 7 8 8 7 8 9 9 10 10 10 11 12 12 11 12 14 14 14 4 5 5 8 9 8 5 7 7 10 10 11 12 12 11 11 10 8 8 8
4 3 1 3 1 3 5 5 6 7 6 5 9 10 9 9 7 6 9 9 10 11 11 8 8 9 8 9 10 10 9 8 7 7 7 6 7 8 7 6 7 6 7 7 7 7 6 5 6 6 7 7 8 8 6 9 9 10 10 12 13 13 14 13 14 15 15 13 3 5 9 11 11 8 8 8 7 9 11 11 10 11 8 9 9 9 7
5 2 4 6 7 3 0 1 2 3 2 1 1 4 3 6 6 4 7 9 10 10 10 9 8 7 7 10 9 9 8 8 8 7 8 8 7 5 5 6 6 6 6 6 6 5 6 6 6 6 6 6 6 7 10 10 9 10 12 13 13 13 13 13 13 14 15 13 9 8 6 11 11 9 10 11 8 4 12 11 12 11 10 8 7 8 8
3 7 5 3 1 4 3 3 2 2 5 4 1 6 2 5 6 4 6 7 8 9 9 8 8 4 8 8 6 7 7 7 6 8 8 8 8 8 6 5 5 6 6 6 7 7 8 9 8 7 6 6 6 8 10 10 11 11 12 12 12 12 13 12 12 13 13 13 11 11 8 9 11 11 10 9 11 6 8 12 12 10 10 10 8 8 9
3 3 5 3 4 1 2 1 4 5 5 5 2 2 2 0 3 5 4 7 6 7 7 5 2 3 4 3 2 5 6 6 6 6 7 7 7 7 7 7 6 6 6 6 6 8 9 10 9 8 8 7 7 8 9 9 10 11 11 11 11 11 11 11 11 12 13 12 12 12 11 9 8 11 11 11 11 11 8 9 12 9 9 11 9 7 8
1 4 3 2 0 1 1 3 5 5 6 5 1 2 2 2 2 3 3 5 5 3 2 4 4 4 7 6 2 2 4 4 5 6 7 7 8 8 8 8 6 5 5 5 7 9 9 8 7 9 7 7 8 8 8 7 9 10 10 9 8 8 9 9 9 11 12 13 12 13 12 12 11 8 8 11 12 13 11 8 8 10 10 11 12 8 7
6 6 3 3 1 1 0 4 5 5 4 1 3 3 2 2 4 4 4 4 3 3 3 2 6 4 5 6 2 1 2 5 6 7 6 6 6 8 8 9 8 6 7 7 7 7 6 7 7 7 8 9 9 9 9 9 9 8 7 7 8 8 8 10 11 12 11 11 12 12 11 12 12 10 7 8 12 13 12 10 9 9 10 11 12 10 10
4 2 4 3 1 0 4 4 4 2 1 4 4 3 3 6 7 6 6 7 6 8 8 8 9 8 6 5 3 4 5 5 5 6 7 7 8 8 7 7 8 8 8 9 9 9 8 8 7 6 7 9 9 8 8 9 8 7 7 7 6 8 9 10 10 10 11 10 10 10 11 11 13 11 8 6 10 13 11 11 11 10 9 10 11 10 10
2 3 3 4 2 1 5 6 2 2 1 1 5 7 6 6 8 8 7 7 7 9 10 8 9 8 6 4 4 4 4 5 5 5 5 6 5 6 7 8 9 7 7 8 9 9 8 7 6 6 7 8 8 9 10 8 7 7 8 8 7 7 8 9 9 9 9 10 9 9 10 10 10 8 6 4 6 12 13 12 10 10 9 9 10 10 10
4 2 2 2 1 4 6 1 2 3 4 6 6 8 7 6 5 6 7 6 6 7 9 8 7 6 5 4 4 4 4 4 4 4 4 5 5 6 5 5 5 5 6 6 6 6 7 7 6 5 6 7 7 8 10 8 8 8 8 9 9 9 8 7 7 8 9 9 9 9 9 8 7 7 6 6 9 11 10 9 8 8 7 8 9 10 10
1 2 4 6 6 6 7 10 9 7 7 6 7 8 7 8 5 3 6 7 6 6 8 8 6 6 4 5 3 3 2 2 2 2 2 3 4 4 4 4 5 4 4 5 6 7 7 7 7 7 6 7 8 8 7 8 9 9 9 9 9 9 9 8 8 7 8 9 9 9 8 8 9 8 8 9 10 8 8 7 6 8 8 8 9 9 8
13 12 9 7 8 8 9 8 7 9 9 7 7 8 9 6 5 4 7 7 7 6 5 7 5 5 5 4 2 2 2 2 1 1 1 2 2 3 3 3 4 4 4 3 4 5 7 7 7 7 8 9 9 5 5 6 7 8 9 10 9 9 8 8 8 7 8 8 9 9 8 7 7 6 6 7 7 7 7 7 6 8 8 8 8 7 6
2 6 4 10 10 9 9 9 8 7 5 5 5 8 8 7 7 6 6 6 6 6 5 6 7 5 5 5 4 4 3 2 3 3 3 3 3 3 3 4 4 4 3 5 5 4 5 5 5 5 5 6 5 5 5 5 6 6 8 8 8 8 8 8 7 7 8 7 7 8 8 7 8 8 8 7 8 8 7 6 7 7 7 7 7 6 6
7 8 8 9 8 9 8 6 8 8 7 6 5 7 6 5 4 5 5 5 6 5 6 6 6 6 4 5 3 3 2 2 2 4 4 4 4 5 4 5 5 4 5 5 4 4 3 3 4 4 4 4 4 4 4 5 5 7 7 7 7 7 8 7 6 6 6 8 8 7 8 8 8 8 8 8 9 8 6 5 6 7 6 6 6 5 5
8 12 8 7 7 7 6 5 4 5 6 7 7 6 5 5 6 5 4 3 4 4 5 3 4 4 3 2 3 3 3 2 3 3 3 4 4 5 5 6 5 5 4 4 4 4 4 4 4 4 4 4 3 3 3 3 5 6 6 6 7 8 8 7 7 5 5 5 5 6 7 8 8 7 7 6 7 7 6 4 4 5 7 6 5 4 4
6 5 8 9 9 5 3 3 5 5 4 6 6 5 4 4 5 4 5 4 3 2 1 2 2 4 3 3 2 3 3 3 4 4 4 4 5 6 5 3 3 5 5 4 4 4 5 4 4 3 3 3 3 3 3 3 5 6 5 6 7 7 6 7 6 6 5 5 5 5 5 5 7 7 9 10 7 7 6 10 15 13 8 4 3 4 6
6 8 11 2 6 9 6 6 3 4 4 6 7 6 4 3 3 4 6 5 2 2 1 2 3 3 4 5 3 3 4 5 5 4 4 3 4 5 4 4 7 6 6 6 6 7 7 7 5 4 3 2 1 3 2 3 4 5 5 6 6 6 6 6 6 6 5 5 4 4 5 4 4 6 6 8 11 12 11 12 13 14 14 13 12 10 6
11 10 5 7 7 7 6 7 7 6 6 7 5 4 4 5 5 4 4 5 7 5 4 4 5 5 4 4 4 5 5 5 5 5 4 3 2 1 1 4 5 6 7 7 6 5 5 6 7 5 3 1 0 1 2 3 4 5 6 6 6 6 5 5 6 5 4 5 4 5 5 4 5 4 5 6 6 8 10 11 12 13 13 12 11 10 9
9 8 9 7 8 9 9 9 8 7 6 7 7 7 6 5 4 4 5 4 3 5 5 5 5 5 5 5 4 6 5 6 4 3 4 2 2 3 4 5 5 5 4 4 4 5 6 7 9 8 6 4 2 1 2 3 4 5 6 7 6 5 5 5 5 5 6 5 6 5 4 3 4 4 5 6 7 6 7 9 12 13 12 11 11 11 11
9 8 7 6 7 7 5 4 3 4 5 5 5 5 5 7 7 5 6 6 5 5 7 6 6 7 6 7 6 6 4 0 4 5 5 3 2 3 4 3 3 3 4 4 4 5 6 6 6 6 7 6 3 3 3 2 3 4 5 5 5 4 4 4 4 5 6 4 5 5 5 5 4 5 3 4 5 5 6 6 7 9 10 12 12 11 12
8 8 10 8 6 4 7 10 7 8 7 6 7 8 8 6 8 7 6 6 7 7 8 8 8 7 5 7 7 3 5 5 5 5 4 3 3 2 0 1 4 3 4 4 4 5 4 4 5 5 5 5 3 3 4 5 5 4 3 4 4 6 7 5 4 4 3 4 4 5 5 5 5 5 5 5 4 5 6 6 6 6 5 7 9 12 10
9 8 9 9 9 9 10 9 8 9 8 8 6 6 6 5 4 4 4 5 4 5 5 6 6 5 5 3 2 4 5 6 6 4 4 3 2 1 0 2 3 3 3 4 4 4 4 4 4 4 4 5 3 2 1 1 3 2 2 3 4 4 4 5 5 4 3 3 3 6 6 5 5 5 5 5 5 5 4 5 5 5 6 6 4 7 13
5 5 5 6 7 6 6 5 6 7 7 7 6 4 5 5 5 6 5 5 4 3 3 3 2 5 5 2 1 2 6 5 4 4 4 3 2 0 0 2 3 4 4 4 5 5 5 5 5 4 4 3 2 1 2 2 2 0 0 1 3 3 4 3 4 3 3 3 4 5 4 6 6 6 6 6 6 5 5 5 5 4 5 4 6 7 9
6 5 6 5 5 7 8 6 6 5 4 4 6 4 6 8 6 5 5 5 3 5 4 1 2 1 2 4 4 6 7 6 6 4 3 2 1 1 0 1 3 4 5 6 6 6 5 5 4 4 4 4 4 0 2 3 2 2 0 0 1 3 3 3 4 5 4 3 3 4 4 3 6 6 6 6 6 6 6 5 4 4 6 5 5 6 6
6 7 8 5 6 6 8 6 5 5 5 5 5 5 4 3 3 2 0 1 2 3 2 3 3 3 3 4 4 4 5 5 4 4 2 1 2 1 1 2 3 3 4 4 5 5 4 3 3 3 4 5 5 1 2 2 0 1 2 0 1 4 4 7 6 5 4 3 3 3 5 4 4 4 5 6 6 6 6 5 4 4 4 4 4 5 3
6 6 7 5 4 5 5 4 4 6 8 7 8 7 7 8 7 5 4 4 1 1 3 4 5 5 4 4 4 5 5 5 3 2 1 2 1 0 2 1 1 2 3 4 4 2 1 2 4 5 4 5 4 4 1 0 1 2 1 3 2 3 5 6 6 3 1 3 2 0 1 3 4 5 6 6 6 6 4 5 4 3 4 6 5 3 1
6 4 3 3 2 2 2 1 6 6 6 7 6 6 6 6 6 5 5 5 4 4 5 4 5 5 4 4 5 5 4 3 2 1 1 1 1 1 2 3 2 2 4 4 3 1 0 2 2 3 4 4 4 4 3 1 3 4 3 2 2 4 4 5 6 5 6 5 2 1 3 2 4 4 5 4 4 5 5 4 4 3 3 3 5 2 3
9 8 8 6 6 6 6 4 3 4 3 4 6 6 5 5 5 4 4 4 5 6 6 6 5 4 4 4 4 4 3 2 0 1 2 2 2 2 3 4 1 1 3 3 1 1 1 1 2 2 3 4 4 4 4 3 2 3 2 4 4 3 4 4 6 6 6 6 4 3 0 3 3 5 4 3 3 4 6 5 6 5 6 5 5 4 5
8 5 5 5 5 7 8 8 7 6 6 6 4 4 4 4 5 5 5 6 4 4 3 3 4 3 4 4 4 2 1 0 1 1 2 2 3 3 3 4 4 4 6 5 2 2 2 2 3 1 3 4 4 4 3 2 2 3 3 3 2 2 3 4 5 5 5 5 2 1 1 3 3 4 4 4 5 5 4 5 6 6 6 6 4 4 5
7 7 7 7 6 6 7 6 5 6 5 6 7 6 5 4 3 3 4 4 4 5 5 4 4 3 4 3 2 2 1 2 2 2 2 3 4 2 2 3 4 4 4 6 3 3 2 2 6 2 3 3 3 2 2 2 2 1 1 2 2 3 5 4 4 2 3 5 5 4 4 2 4 3 3 3 4 4 4 4 4 4 6 6 5 5 3
8 9 7 7 6 7 7 6 6 5 6 7 7 6 5 4 4 4 4 3 4 5 5 5 4 4 4 5 2 2 2 2 3 3 2 1 1 1 1 3 4 3 3 5 4 3 2 1 4 1 2 2 1 1 1 1 0 1 2 1 2 3 3 3 3 3 3 4 3 2 0 1 3 2 2 3 4 4 4 5 3 3 3 4 5 5 5
6 9 8 7 6 6 5 5 5 7 7 5 3 4 6 4 4 4 3 1 2 4 5 5 5 4 2 1 1 1 1 2 3 3 2 1 1 1 3 2 5 2 3 4 3 2 3 3 2 0 1 0 1 1 0 1 1 0 0 1 1 1 2 2 1 2 3 3 1 2 4 2 4 4 3 2 3 4 4 4 4 4 2 2 3 3 5
5 5 6 5 5 5 4 2 3 5 7 7 5 4 3 5 5 5 5 4 1 1 4 4 3 3 3 4 3 2 4 4 4 4 3 3 2 2 4 5 5 6 6 5 4 4 4 3 1 2 1 1 0 1 2 1 3 2 1 0 1 1 1 0 1 1 1 2 4 1 4 3 4 4 4 3 3 3 3 4 4 3 3 3 4 4 4
5 5 5 5 3 1 2 2 2 4 5 8 8 6 6 4 4 4 4 4 1 1 2 4 4 3 2 2 3 4 5 5 4 4 4 2 2 0 3 6 6 6 6 8 7 4 4 3 3 3 3 2 2 1 2 1 2 0 0 0 2 3 3 3 1 1 1 0 1 3 3 3 4 4 4 4 3 3 3 3 4 3 3 3 2 3 3
6 5 5 5 4 3 4 5 4 4 3 3 4 3 3 4 4 4 2 1 0 2 3 1 1 1 1 3 3 3 3 3 4 4 3 2 1 2 1 4 5 3 1 1 3 2 1 3 4 4 3 3 3 3 3 3 1 0 1 2 2 3 4 5 4 4 0 0 1 4 5 4 4 5 4 3 3 3 3 4 4 4 5 5 4 4 4
5 5 5 5 3 3 1 2 3 6 5 4 5 6 5 4 5 4 3 2 0 1 1 1 4 2 3 3 2 2 1 2 3 4 6 7 7 5 3 5 4 4 5 2 1 2 1 4 4 4 4 4 3 5 5 2 3 3 1 2 3 3 3 4 5 3 1 1 3 5 5 1 1 3 3 3 3 3 3 3 4 4 3 3 4 3 3
5 5 5 5 4 4 4 5 7 6 5 3 4 5 5 4 4 3 2 1 0 1 1 1 0 1 1 1 1 2 4 1 2 3 3 4 4 5 6 6 3 3 6 0 2 3 2 4 4 4 4 4 4 6 4 2 3 3 4 5 4 3 4 5 6 3 3 2 4 6 6 6 4 3 4 5 5 4 3 4 4 4 5 5 4 4 4
5 5 6 6 4 4 5 6 5 4 4 1 2 3 4 4 4 4 3 1 1 0 0 0 0 1 1 1 1 1 1 1 2 3 3 4 3 4 5 6 5 5 2 0 1 1 2 2 3 4 5 6 6 5 2 2 3 3 5 5 5 4 3 5 4 2 5 3 4 5 7 6 6 6 6 5 4 3 3 3 3 5 6 5 4 3 4
6 5 5 6 5 4 5 5 6 6 4 3 4 5 4 4 3 3 4 3 2 1 0 0 0 1 1 0 0 1 2 4 6 6 4 2 4 5 2 4 6 3 2 3 1 2 3 3 4 4 3 3 3 2 1 1 2 3 4 4 4 4 6 5 4 3 5 4 4 3 2 5 6 7 6 5 5 5 4 4 5 4 5 5 6 6 6
5 7 6 6 5 5 4 5 4 4 4 2 1 0 2 2 3 3 2 3 1 0 1 1 3 3 4 4 2 2 2 1 2 4 3 4 4 3 2 3 4 4 6 5 3 3 4 4 3 5 5 4 2 1 1 1 2 3 4 4 4 4 5 5 3 1 3 5 3 3 3 3 5 6 6 6 6 6 4 3 4 4 5 7 6 6 7
6 5 4 4 2 2 5 5 5 3 2 2 2 3 2 2 1 1 1 1 4 5 4 4 3 1 2 4 6 4 1 0 1 1 2 2 2 3 4 5 2 3 4 3 5 5 4 3 5 5 4 3 2 1 1 2 3 3 3 4 3 2 3 2 0 1 2 3 3 2 3 3 5 5 5 5 5 5 5 4 4 6 5 3 4 5 6
5 4 3 2 4 4 4 3 5 6 5 5 4 3 1 2 4 4 4 4 4 4 4 3 3 2 3 2 0 0 2 4 2 3 2 3 3 1 1 2 1 4 3 3 4 5 5 6 7 5 3 3 2 1 1 2 3 2 4 3 0 0 1 1 1 0 1 3 3 2 2 1 2 4 6 6 6 6 5 5 6 5 3 4 6 6 6
6 6 6 5 5 4 4 7 8 7 6 4 4 2 2 4 4 4 4 4 4 4 3 3 3 2 1 1 2 3 1 1 1 2 3 2 3 3 2 2 2 3 3 3 3 4 5 6 6 5 3 2 4 2 1 3 4 4 3 3 2 2 3 3 1 0 0 3 4 5 4 3 3 3 4 5 5 6 5 4 5 5 5 5 5 5 5
5 5 4 4 5 6 7 7 7 7 6 5 5 3 3 5 5 2 1 4 4 4 3 3 2 2 2 2 2 2 2 2 3 2 1 1 1 1 2 2 2 5 3 1 3 4 5 6 6 4 2 2 3 2 2 3 4 3 4 4 4 4 4 1 2 1 0 1 2 3 3 3 1 1 3 4 4 5 6 6 5 5 5 4 3 3 3
4 4 3 3 3 4 4 7 8 7 6 6 5 4 6 6 5 2 3 5 5 5 4 3 3 2 3 2 1 1 1 1 1 2 1 3 3 4 3 4 4 4 2 1 1 3 3 3 4 2 2 3 3 4 4 4 3 3 4 3 3 2 1 0 1 1 1 0 0 1 1 2 2 2 1 1 4 5 5 4 5 4 4 5 4 4 4
5 5 5 4 4 4 5 6 5 6 6 6 6 6 7 7 6 4 3 4 6 4 4 5 3 0 2 3 1 0 1 1 2 2 2 1 2 3 3 4 4 5 6 4 4 5 4 1 1 3 3 4 5 5 5 5 3 3 5 4 4 3 1 1 2 3 1 1 2 3 2 1 2 2 1 1 2 4 4 4 5 5 4 4 5 4 3
Wind_Direction
70 89 99 89 74 69 80 67 52 44 34 44 55 33 343 98 116 171 110 87 90 75 65 66 65 65 63 54 47 48 55 55 51 46 45 41 35 31 28 23 25 21 16 8 3 -0 357 357 358 357 356 353 354 347 348 344 344 344 338 332 336 350 333 306 258 223 226 265 305 243 229 196 182 173 164 152 163 199 195 168 156 135 115 117 114 101 87
92 92 92 91 89 79 62 56 58 50 55 44 47 51 52 68 75 89 101 91 83 74 63 55 52 60 70 61 53 53 51 48 46 45 46 46 40 33 23 22 25 22 17 9 4 1 -0 359 357 358 356 357 352 350 346 347 346 345 342 343 331 329 351 338 310 248 217 202 217 240 217 198 197 179 167 162 166 168 209 157 123 111 113 112 116 119 107
78 90 87 81 85 83 71 46 47 53 61 54 32 39 29 66 74 85 91 93 88 64 68 65 57 62 79 70 57 53 50 46 40 41 42 41 39 36 34 31 27 25 21 17 9 6 1 359 357 356 356 353 353 351 351 348 348 344 345 350 347 337 336 341 328 284 215 210 205 223 207 192 196 184 162 140 141 200 171 118 117 118 114 112 106 105 103
81 101 100 98 92 82 74 48 29 31 42 46 23 45 352 46 116 99 84 80 99 105 81 71 61 69 67 68 58 50 41 33 35 37 38 40 34 35 33 31 28 23 22 19 18 10 1 359 356 360 355 353 354 358 353 352 344 343 353 352 353 350 346 336 341 321 234 209 213 250 215 189 193 176 152 148 168 201 127 120 117 113 109 108 108 104 102
122 184 127 129 110 73 47 14 357 74 80 110 74 41 32 24 82 103 120 103 109 116 101 85 66 69 71 62 50 40 44 38 42 43 38 32 35 31 29 28 24 21 17 18 18 13 9 3 -0 357 353 355 4 356 353 347 343 0 2 357 349 356 359 359 343 325 249 188 196 201 228 200 154 208 158 151 148 146 131 122 113 108 111 108 102 100 102
161 194 197 65 56 71 240 317 308 220 126 100 75 39 27 35 54 86 92 112 108 97 83 88 84 71 63 62 52 38 26 32 45 48 44 40 35 28 26 19 16 9 2 3 6 9 11 8 1 349 356 359 354 352 351 352 4 5 6 1 5 358 -0 18 358 349 319 187 189 185 184 208 158 178 138 134 132 138 122 112 108 107 105 101 101 98 93
162 145 44 54 58 129 49 29 66 88 96 89 85 62 41 47 77 87 90 94 100 93 92 90 88 84 74 60 54 39 28 21 28 47 52 46 37 33 23 18 11 6 3 357 348 346 357 355 353 356 4 359 349 5 5 9 9 11 8 8 14 8 5 15 21 2 351 327 114 122 111 108 92 78 90 101 117 121 116 116 116 113 113 106 100 98 92
60 52 6 130 178 153 143 123 111 119 111 100 86 59 33 29 26 93 113 117 117 118 112 107 101 93 85 66 43 33 24 26 29 35 34 35 39 37 26 19 7 5 5 6 0 354 336 326 335 360 358 346 6 10 1 24 17 15 13 18 15 11 13 10 29 16 2 338 25 93 114 112 107 100 92 85 87 106 106 102 95 98 85 94 99 92 87
125 99 55 85 120 130 94 98 50 359 357 330 246 127 28 22 3 26 125 128 127 123 125 129 129 121 94 60 33 15 17 17 25 33 38 32 23 18 28 22 9 359 1 7 4 0 4 1 348 347 346 348 2 12 28 26 22 20 22 22 17 10 13 13 19 32 11 353 348 41 69 102 99 95 97 91 65 33 101 100 101 93 95 86 83 88 83
96 133 102 109 80 187 200 169 274 327 338 319 133 106 105 17 6 23 116 127 140 142 153 161 158 165 66 50 20 347 358 2 23 31 35 31 29 24 6 357 7 3 2 7 6 17 18 14 6 351 344 352 4 19 29 27 26 25 25 22 14 14 14 10 19 32 26 5 360 33 32 75 98 99 94 86 88 51 78 100 93 94 100 92 79 80 82
90 98 127 148 179 226 100 273 301 307 313 316 220 92 142 18 6 2 111 116 138 160 180 196 198 67 71 80 334 322 341 356 8 30 31 31 31 27 23 12 358 351 350 354 5 16 20 19 360 356 356 0 12 24 25 23 25 28 24 15 11 10 8 1 18 25 36 16 10 26 39 33 61 92 95 97 97 90 76 82 93 93 87 88 85 75 81
117 136 96 160 55 201 243 277 300 317 327 298 262 216 211 124 33 26 67 121 136 138 148 139 100 123 137 144 193 284 335 354 12 21 14 16 18 22 16 10 1 0 347 350 13 17 15 5 357 4 0 12 27 27 19 15 26 25 14 6 360 5 8 10 14 31 32 27 11 22 26 39 35 42 85 97 95 96 84 64 83 93 92 89 85 72 65
88 91 99 76 109 4 180 318 305 319 293 47 151 237 118 131 78 57 81 82 60 80 72 67 104 25 89 125 152 358 11 33 23 13 14 12 6 6 1 359 350 7 8 15 19 13 4 358 1 5 14 20 23 23 26 28 21 10 3 4 8 7 15 23 23 34 35 37 24 21 24 33 35 24 11 80 95 87 89 88 78 71 82 87 84 76 66
107 125 87 129 46 31 346 300 280 289 73 162 220 123 104 111 94 87 89 86 81 86 85 99 97 112 113 119 94 67 39 32 7 6 1 1 -0 356 352 348 -0 355 7 17 19 15 8 3 358 7 20 28 20 16 20 22 12 7 10 11 13 18 25 28 28 31 37 35 31 30 25 33 44 20 356 21 81 94 93 88 83 80 73 79 83 80 72
57 51 97 111 160 135 347 299 299 24 180 55 113 108 92 102 104 98 83 88 97 104 102 99 111 117 119 104 83 56 40 34 23 10 1 358 354 341 342 343 347 353 351 7 13 14 5 6 0 353 14 29 19 17 22 6 357 7 15 17 18 22 26 33 33 31 32 34 37 35 36 30 43 43 338 342 67 87 89 87 85 85 82 83 86 82 73
121 101 95 163 356 353 331 161 129 356 74 131 125 117 108 96 100 106 103 87 96 106 112 119 111 107 103 80 69 64 56 50 36 20 10 8 0 352 338 326 319 333 339 337 341 342 353 358 3 356 7 20 17 23 16 0 10 11 16 18 21 23 25 26 29 35 32 33 34 36 35 38 43 51 35 22 46 62 75 90 100 101 97 89 83 79 77
121 129 93 86 70 50 34 73 89 84 83 93 100 99 108 115 85 70 97 105 102 107 116 110 109 99 95 109 115 97 57 57 41 9 347 345 339 336 330 322 325 321 316 316 321 328 335 351 355 4 8 16 18 18 354 7 14 15 15 18 20 21 22 21 21 29 38 35 33 34 36 39 42 32 33 33 48 41 61 69 83 89 85 83 80 78 75
82 72 91 97 77 74 72 64 85 97 96 85 95 104 102 92 105 119 121 124 125 124 122 118 116 132 149 136 136 122 132 135 193 261 292 296 294 299 312 318 323 321 327 329 338 352 358 7 13 21 35 39 38 17 5 11 11 18 21 19 17 14 16 20 19 21 34 38 38 34 34 38 42 37 39 45 57 54 63 70 74 84 87 81 81 81 81
106 74 69 92 98 99 95 94 91 89 89 102 108 98 100 120 140 142 149 144 140 135 141 139 145 151 157 140 146 160 196 227 247 253 262 267 266 270 285 287 306 321 335 335 345 352 13 5 19 16 38 55 60 49 35 20 23 24 28 24 21 16 14 12 16 25 33 33 39 37 32 32 41 39 34 37 49 46 47 61 75 87 97 97 95 94 97
75 117 120 111 110 106 109 110 113 111 110 109 111 118 124 131 128 122 122 115 112 124 137 152 148 159 164 152 171 186 210 233 257 272 272 274 294 285 274 286 302 309 315 325 340 347 355 347 26 21 12 20 47 50 38 36 32 35 31 22 21 16 17 16 15 15 32 33 41 47 38 36 34 31 35 40 51 41 27 19 69 90 95 99 105 113 111
108 111 108 108 93 82 92 112 113 120 132 129 116 109 119 124 119 117 104 96 129 143 156 159 147 152 196 192 183 184 208 251 281 282 290 301 294 300 308 306 309 296 309 323 321 326 331 337 11 20 12 356 7 38 32 36 47 45 30 22 25 21 18 24 25 24 30 31 40 49 54 53 51 41 30 30 51 58 37 9 7 69 98 89 91 88 94
126 141 151 159 118 131 151 148 143 130 119 116 112 112 126 145 139 138 125 105 80 90 127 175 168 170 191 216 195 226 240 239 248 267 283 295 318 317 320 325 2 21 16 23 7 332 314 336 355 12 2 357 347 0 24 39 46 46 34 28 26 22 23 26 19 34 42 37 31 35 49 69 73 59 48 55 47 62 51 36 50 47 51 79 82 102 92
141 156 161 183 125 130 156 154 145 127 127 127 135 156 162 179 173 142 138 135 113 141 214 203 198 217 199 221 203 238 266 261 242 239 260 299 315 318 315 11 18 13 9 8 9 355 335 330 335 340 334 334 343 356 2 44 64 55 43 34 25 22 27 25 18 33 46 49 48 57 38 29 48 82 75 47 52 56 61 63 58 53 54 54 52 46 70
125 142 136 136 136 139 159 160 155 159 160 150 157 174 176 175 177 169 159 163 162 184 217 230 209 212 226 239 194 221 252 264 274 271 276 272 269 264 2 49 27 22 14 13 12 357 339 348 353 353 317 326 316 0 349 20 55 61 53 52 33 16 28 32 26 21 42 54 42 52 57 55 35 44 73 78 57 47 62 69 65 67 64 61 57 58 59
142 149 144 151 146 149 157 163 166 167 170 161 163 176 184 191 209 176 173 185 197 181 187 225 246 231 222 239 216 222 230 241 224 210 206 161 79 70 52 41 33 23 6 354 355 1 4 5 2 4 359 322 328 328 343 15 43 51 58 69 48 24 24 30 36 23 21 34 49 47 37 47 76 57 71 85 79 63 39 60 75 73 64 58 55 53 49
127 137 142 138 133 137 134 107 142 180 183 177 170 183 191 186 192 183 200 193 195 194 191 202 222 243 223 233 237 235 239 125 138 131 96 87 72 52 46 58 41 27 7 7 354 359 3 5 6 9 17 2 346 310 314 0 46 67 71 78 79 64 38 33 40 28 31 36 41 42 38 37 63 104 94 87 97 90 79 55 41 40 43 45 43 39 37
122 126 119 106 114 138 154 160 190 199 192 188 180 189 194 193 191 195 208 205 206 202 202 207 207 216 219 224 221 184 114 88 90 93 121 136 120 124 197 109 58 33 19 2 348 340 345 2 11 10 4 348 360 22 3 355 11 33 47 67 82 63 48 45 50 31 32 46 48 48 55 57 50 74 97 93 83 68 70 77 68 52 32 17 27 43 48
131 134 132 139 156 169 187 190 175 179 182 185 193 194 200 174 169 169 178 193 185 185 183 176 176 169 192 231 171 111 84 113 130 151 144 160 173 220 233 78 59 28 9 354 330 326 334 352 13 7 343 325 344 70 65 79 55 6 54 69 58 53 50 36 30 4 23 49 39 70 75 62 66 67 91 97 86 83 68 61 59 54 35 22 15 10 40
119 128 130 139 156 152 142 142 136 151 170 189 174 162 135 146 170 158 167 178 186 163 159 208 197 182 170 208 168 102 125 146 145 152 181 199 215 232 282 70 60 30 11 353 341 336 339 345 357 356 324 307 297 357 51 74 103 109 248 100 89 75 65 54 48 16 0 22 43 24 63 89 77 72 69 76 88 95 85 78 66 51 46 29 25 27 35
130 121 112 114 118 120 114 127 155 171 163 157 151 165 167 153 158 188 190 196 183 169 215 195 117 131 123 127 138 143 148 166 172 180 190 210 243 280 285 49 42 14 7 356 343 337 345 341 343 348 308 298 287 245 79 65 80 123 236 262 127 109 105 72 50 31 8 343 352 32 29 42 85 102 96 89 91 101 108 104 107 84 63 40 46 57 58
143 140 136 134 118 123 128 150 145 142 141 142 127 104 78 88 111 89 0 219 203 189 192 155 147 104 87 118 146 140 135 147 163 178 187 222 274 291 357 72 61 345 325 312 315 323 332 326 351 336 299 300 295 321 78 76 323 144 162 317 13 44 56 77 72 44 4 332 328 10 41 47 63 80 93 94 94 99 111 120 109 94 88 74 61 62 69
126 133 136 137 140 142 150 137 95 105 118 123 115 115 119 111 111 119 112 101 119 136 94 91 106 122 129 129 119 123 131 139 137 156 233 249 258 325 317 10 45 328 313 314 318 320 324 17 359 316 313 319 319 311 28 155 204 138 113 25 355 20 13 36 57 51 24 311 294 113 92 99 103 109 100 110 119 123 125 118 119 115 111 92 71 44 32
118 110 131 149 114 130 140 110 134 151 135 124 125 131 129 128 130 133 135 139 112 106 108 119 137 145 155 134 116 123 137 136 137 133 230 248 280 293 307 326 40 340 318 315 293 278 150 35 328 308 335 342 356 350 322 19 88 103 122 125 70 58 41 24 33 14 12 29 28 223 157 156 136 109 105 109 112 116 117 114 110 94 68 86 99 92 99
152 173 184 185 165 174 162 144 124 104 88 112 137 133 132 131 131 127 118 108 119 133 144 166 171 159 135 121 117 112 107 95 18 278 274 269 273 289 309 319 20 352 311 320 336 306 304 324 324 359 14 27 27 19 21 43 89 119 118 87 73 66 60 34 23 12 14 0 22 16 311 135 95 104 118 123 127 126 124 127 130 125 111 100 110 116 118
133 143 136 137 142 144 140 141 142 134 126 107 100 113 129 138 135 138 139 129 143 191 179 139 139 149 143 128 118 123 124 134 235 239 271 262 259 266 313 338 358 16 354 336 315 289 266 297 302 83 67 54 49 44 37 55 65 59 51 76 71 66 93 78 52 19 9 339 353 64 196 108 123 145 151 144 149 141 130 139 140 136 129 131 123 107 97
114 109 100 95 98 103 106 116 127 133 124 122 133 137 139 142 126 114 114 144 175 150 149 150 160 142 113 117 142 170 205 218 215 219 246 257 251 278 349 5 2 351 351 331 292 245 278 327 292 266 98 83 66 41 41 51 41 67 69 78 66 51 32 49 58 29 31 26 38 23 305 174 166 166 153 136 125 123 127 136 143 149 147 142 136 112 110
103 104 105 107 110 111 114 122 136 130 124 128 125 120 133 156 170 176 172 170 142 139 149 150 139 138 188 208 208 211 209 204 193 190 213 249 282 334 2 352 340 334 340 328 278 258 260 270 257 208 90 97 134 91 333 23 137 241 223 166 100 81 77 45 16 29 17 50 34 99 303 253 109 56 62 108 118 118 118 125 138 147 167 157 141 139 139
113 110 113 118 123 112 124 140 133 110 105 104 108 141 148 154 141 108 106 123 148 150 156 167 180 196 166 107 148 188 250 262 247 226 230 244 193 211 302 312 286 283 297 262 255 244 232 241 254 171 130 184 162 113 232 244 156 188 207 35 89 131 122 130 85 334 30 6 16 143 148 183 135 136 132 115 122 133 135 143 152 159 171 165 123 133 152
72 74 91 112 124 137 141 104 82 99 117 130 142 163 187 152 138 103 85 82 64 136 116 141 139 127 157 180 232 277 278 256 233 219 206 215 186 171 236 243 245 231 226 249 274 248 241 230 188 191 194 222 213 206 202 342 23 81 109 26 353 311 304 83 123 150 34 342 352 61 133 153 150 136 133 147 151 148 153 159 160 160 156 155 151 164 167
124 117 115 97 89 93 100 110 132 145 151 145 149 169 190 145 109 110 122 105 109 171 160 136 116 129 192 228 232 246 250 242 211 199 214 201 157 186 318 295 267 257 248 252 248 241 229 198 187 210 219 239 241 256 282 184 187 83 65 273 302 311 313 319 351 89 122 199 109 104 115 146 147 145 153 166 161 159 154 153 159 172 171 183 163 138 152
141 128 111 96 100 98 129 122 149 175 190 174 161 143 121 134 130 95 94 129 214 144 145 148 133 189 189 186 195 219 238 213 186 191 169 136 175 193 203 271 273 274 264 240 262 282 255 216 189 213 241 254 249 247 253 305 18 44 300 303 313 315 329 319 317 302 4 310 136 144 151 165 157 154 160 152 167 174 175 171 180 180 163 173 171 165 146
158 132 113 109 102 106 158 155 106 78 70 93 123 133 148 151 138 155 184 195 70 68 114 200 198 216 219 218 216 234 246 209 177 177 178 183 197 182 191 257 255 249 251 222 269 287 195 227 210 215 218 235 246 257 256 295 339 344 355 303 292 284 266 263 272 281 301 273 126 136 121 114 213 174 174 170 180 186 197 173 165 170 177 173 177 175 166
146 129 122 104 83 88 101 100 105 115 110 121 146 154 170 159 148 167 182 168 93 16 6 334 326 217 194 245 277 278 296 286 185 190 218 261 228 187 186 220 254 260 251 73 24 350 321 219 207 209 221 217 236 255 274 307 335 339 323 307 290 264 264 256 255 230 171 167 143 160 153 159 183 206 199 192 195 191 174 165 171 167 164 182 191 159 168
143 127 128 120 131 133 115 106 113 106 105 134 226 191 166 174 175 175 183 149 23 233 172 227 238 237 235 180 165 233 271 180 169 178 187 258 289 257 223 234 248 253 303 60 16 328 270 218 205 207 227 238 252 267 283 311 333 322 309 300 303 319 310 294 273 205 173 183 200 188 173 173 177 188 208 190 198 202 215 203 184 175 178 169 147 170 180
143 128 127 140 154 123 120 129 132 145 169 182 164 155 160 157 160 138 129 149 170 212 226 272 280 293 337 317 204 224 211 191 167 145 129 192 239 280 281 229 241 243 160 178 136 217 245 200 190 176 188 218 242 237 227 275 296 302 296 302 323 321 303 288 271 222 174 186 199 220 199 160 175 182 196 186 187 187 205 202 211 189 159 160 181 180 194
145 144 142 129 142 155 166 171 169 169 168 138 92 308 266 229 165 173 157 148 153 107 73 117 132 128 130 125 97 75 101 138 193 199 186 172 178 226 257 268 247 196 154 136 139 221 237 244 221 182 178 202 185 180 235 261 281 295 310 321 320 311 321 304 274 220 156 191 194 204 191 168 164 185 184 179 192 199 210 206 202 197 190 184 188 186 198
153 159 154 162 174 161 154 160 168 144 69 42 15 337 3 102 111 93 94 110 108 116 119 115 114 122 146 150 142 124 113 328 327 296 264 256 200 209 251 260 200 175 133 144 185 215 216 221 237 219 209 233 230 250 269 301 313 319 313 308 302 308 318 315 60 203 165 163 188 227 201 185 190 188 174 180 189 201 206 205 202 208 208 193 187 189 202
128 125 127 139 138 162 160 117 67 64 72 94 101 126 100 76 73 68 80 97 91 90 97 101 95 87 93 89 104 81 124 135 143 279 292 302 306 281 217 258 272 202 181 163 213 243 236 238 246 242 218 256 263 242 275 283 287 287 291 285 263 174 263 284 9 23 168 161 159 182 207 208 185 172 185 186 196 201 201 199 212 220 199 199 199 196 206
141 146 151 149 151 146 117 103 105 109 125 147 123 125 126 101 93 95 99 100 102 99 104 106 109 92 46 40 67 66 113 156 160 238 280 287 295 297 306 259 217 169 181 182 217 247 241 241 252 246 219 236 274 276 301 298 305 310 311 296 271 215 225 226 219 222 189 184 170 182 199 177 183 158 178 197 201 200 200 209 215 209 206 211 216 215 213
141 132 144 152 147 132 131 126 134 152 156 129 128 152 131 105 81 49 101 117 122 110 76 57 70 91 85 71 63 55 58 56 27 11 358 325 303 188 175 143 132 138 152 237 272 271 255 245 257 260 239 243 267 264 256 274 286 287 284 248 237 235 226 233 274 331 38 190 177 186 202 168 150 224 197 187 201 204 205 210 205 213 206 210 193 193 205
143 160 189 197 177 180 153 150 163 159 151 141 140 135 103 104 130 152 148 129 102 93 92 68 62 102 114 88 39 40 45 41 36 10 55 53 40 38 69 97 105 114 139 167 262 278 271 254 262 265 253 248 258 262 260 254 251 243 241 217 209 221 249 40 107 70 52 42 195 156 92 97 143 118 126 186 193 211 221 211 214 216 206 203 182 193 194
146 150 150 144 135 132 148 162 155 150 149 150 145 127 126 135 121 101 91 111 118 137 149 118 85 351 175 152 152 104 342 7 22 0 358 356 50 68 46 57 51 43 48 45 31 32 21 352 304 306 301 301 298 297 294 296 279 257 263 248 224 218 210 204 169 151 142 110 97 89 83 102 107 95 118 160 202 210 209 220 224 217 212 210 191 176 160